#timestamp,LO_Frequency,Hit,StdDev 
1458853215.2,286046994.9,N
1458853235.9,286046997.4,N
1458853255.7,286046995.0,N
1458853275.6,286046993.5,Y
1458853295.4,286046999.5,P
1458853315.2,286047002.0,N
1458853335.1,286047001.0,N
1458853336.0,286047001.0,N
1458853355.8,286047000.0,N
1458853375.6,286046996.9,N
1458853395.4,286046997.3,N
1458853415.3,286046996.0,N
1458853435.1,286046996.4,N
1458853455.8,286046997.9,N
1458853475.7,286046997.9,N
1458853495.5,286046996.8,N
1458853515.3,286046996.1,N
1458853535.2,286046996.3,N
1458853555.9,286046995.9,N
1458853575.7,286046995.8,N
1458853595.6,286046996.4,N
1458853615.4,286046993.5,Y
1458853635.2,286046996.4,P
1458853655.1,286046999.5,N
1458853656.0,286046999.5,N
1458853675.8,286046999.1,N
1458853695.6,286046998.8,N
1458853715.5,286046997.0,N
1458853735.3,286046996.9,N
1458853755.1,286046998.8,N
1458853775.9,286046999.1,N
1458853795.7,286046998.6,N
1458853815.5,286047000.8,N
1458853835.3,286046999.1,N
1458853855.3,286047000.3,N
1458853875.1,286046999.3,N
1458853895.8,286046998.5,N
1458853915.7,286046999.6,N
1458853935.5,286046999.6,N
1458853955.3,286046999.5,N
1458853975.2,286046998.4,N
1458853995.9,286047002.8,N
1458854015.7,286047001.7,N
1458854035.6,286047000.2,N
1458854055.4,286047001.7,N
1458854075.2,286047005.1,Y
1458854095.1,286047008.0,P
1458854096.0,286047008.0,N
1458854115.8,286047011.6,N
1458854135.6,286047011.6,N
1458854155.5,286047010.0,N
1458854175.3,286047008.4,N
1458854195.1,286047012.3,Y
1458854215.9,286046999.9,P
1458854235.7,286047004.0,N
1458854255.5,286047006.9,N
1458854275.4,286047003.0,N
1458854295.2,286046999.7,N
1458854315.0,286047001.9,N
1458854315.9,286047001.9,N
1458854335.7,286046998.2,N
1458854355.6,286047002.5,N
1458854375.4,286047003.7,N
1458854395.2,286047001.7,N
1458854415.1,286047002.0,N
1458854416.0,286047002.0,N
1458854435.8,286047001.2,N
1458854455.6,286046997.7,N
1458854475.5,286046997.7,N
1458854495.3,286046996.7,N
1458854515.1,286047000.5,N
1458854535.9,286047001.1,N
1458854555.7,286047000.0,N
1458854575.5,286046998.1,N
1458854595.3,286046998.1,N
1458854615.2,286047003.5,N
1458854635.0,286047002.8,N
1458854635.9,286047002.8,N
1458854655.7,286047001.1,N
1458854675.6,286047000.2,N
1458854695.4,286047001.0,N
1458854715.2,286047000.9,N
1458854735.1,286046999.1,N
1458854736.0,286046999.1,N
1458854755.8,286046999.6,N
1458854775.6,286046996.9,N
1458854795.5,286046999.0,N
1458854815.3,286046998.9,N
1458854835.1,286046999.5,N
1458854855.9,286046994.2,Y
1458854875.7,286046995.9,P
1458854895.5,286046995.9,N
1458854915.4,286046995.4,N
1458854935.2,286046995.8,N
1458854955.0,286046994.4,Y
1458854955.9,286046994.4,P
1458854975.8,286046993.5,P
1458854995.6,286046992.0,P
1458855015.4,286046989.0,Y
1458855035.3,286046996.1,P
1458855055.1,286046996.9,P
1458855075.8,286046993.8,P
1458855095.7,286046993.4,Y
1458855115.5,286046999.3,P
1458855135.3,286046998.5,N
1458855155.2,286047002.8,N
1458855175.9,286047001.0,N
1458855195.7,286047002.2,N
1458855215.6,286046998.1,N
1458855235.4,286046999.7,N
1458855255.2,286047000.0,N
1458855275.0,286047002.3,N
1458855276.0,286047002.3,N
1458855295.8,286047000.0,N
1458855315.6,286047000.0,N
1458855335.4,286047000.5,N
1458855355.3,286047000.9,N
1458855375.1,286046999.4,N
1458855395.8,286047002.4,N
1458855415.7,286047000.0,N
1458855435.5,286047001.3,N
1458855455.3,286047007.6,Y
1458855475.2,286047006.3,P
1458855495.9,286047008.1,N
1458855515.7,286047008.9,N
1458855535.6,286047005.0,N
1458855555.4,286047007.6,N
1458855575.2,286047006.9,N
1458855595.1,286047003.9,N
1458855596.0,286047003.9,N
1458855615.8,286047002.8,N
1458855635.6,286047000.0,N
1458855655.5,286047000.4,N
1458855675.3,286046998.9,N
1458855695.1,286047001.3,N
1458855715.8,286047002.8,N
1458855735.7,286047000.9,N
1458855755.5,286047000.4,N
1458855775.3,286047000.7,N
1458855795.2,286047003.4,N
1458855815.9,286047004.2,N
1458855835.7,286047003.0,N
1458855855.6,286047002.4,N
1458855875.4,286047002.9,N
1458855895.2,286047003.9,N
1458855915.1,286047000.9,N
1458855916.0,286047000.9,N
1458855935.8,286046995.4,N
1458855955.6,286047000.9,N
1458855975.4,286046998.9,N
1458855995.3,286046999.7,N
1458856015.1,286047003.5,N
1458856035.8,286047004.1,N
1458856055.7,286047003.5,N
1458856075.5,286047006.0,N
1458856095.3,286047004.1,N
1458856115.2,286047001.3,N
1458856135.9,286047003.8,N
1458856155.7,286047004.1,N
1458856175.6,286047005.5,N
1458856195.4,286047002.6,N
1458856215.2,286046998.6,N
1458856235.1,286046998.6,N
1458856236.0,286046998.6,N
1458856255.8,286047002.1,N
1458856275.6,286047002.5,N
1458856295.5,286047001.7,N
1458856315.3,286047000.8,N
1458856335.1,286047000.4,N
1458856355.8,286046998.2,N
1458856375.7,286047001.6,N
1458856395.5,286047005.3,N
1458856415.3,286047006.7,N
1458856435.2,286047006.2,N
1458856455.9,286047010.0,Y
1458856475.7,286047007.7,P
1458856495.6,286047007.8,N
1458856515.4,286047009.9,P
1458856535.2,286047012.2,Y
1458856555.1,286047005.6,P
1458856556.0,286047005.6,P
1458856575.8,286047007.2,P
1458856595.6,286047007.4,Y
1458856615.5,286047000.7,P
1458856635.3,286047004.3,N
1458856655.1,286047002.0,N
1458856675.9,286046999.7,N
1458856695.7,286047002.5,N
1458856715.5,286047003.7,N
1458856735.4,286047005.2,N
1458856755.2,286047006.1,N
1458856775.0,286047008.9,Y
1458856775.9,286047008.9,P
1458856795.8,286047007.3,N
